Regional Weather Roundup
Issued by NWS Nashville, TN

Home | Current Version | Previous Version | Text Only | Print | Product List | Glossary On
Versions: 1 2 3 4 5 6 7 8 9 10 11 12 13 14 15 16 17 18 19 20 21 22 23 24 25 26 27 28 29 30 31 32 33 34 35 36 37 38 39 40 41 42 43 44 45 46 47 48 49 50
000
ASUS44 KOHX 220015
RWROHX
MIDDLE TENNESSEE HOURLY WEATHER ROUNDUP
NATIONAL WEATHER SERVICE NASHVILLE TN
700 PM CDT THU AUG 21 2014

NOTE: "FAIR" INDICATES FEW OR NO CLOUDS BELOW 12,000 FEET WITH
NO SIGNIFICANT WEATHER AND/OR OBSTRUCTIONS TO VISIBILITY.

* THESE REPORTS ARE NOT UNDER NWS QUALITY CONTROL AND MAY NOT
  REPORT WEATHER SUCH AS PRECIPITATION AND FOG.


TNZ005>011-023>034-057-059-062>066-078-080-220100
...NORTHERN MIDDLE TENNESSEE...

CITY           SKY/WX    TMP DP  RH WIND       PRES   REMARKS
CLARKSVILLE    CLEAR     88  71  57 SW8       30.02F HX  94
CROSSVILLE     CLEAR     79  70  74 CALM      30.16S
GALLATIN         N/A     90  74  59 CALM      30.06R HX  99
DICKSON        CLEAR     88  72  58 SW5       30.06S HX  94
LEBANON        CLEAR     90  70  51 SW6       30.04S HX  95
LIVINGSTON     CLEAR     83  70  64 SW3       30.11
NASHVILLE      PTCLDY    88  71  57 SW3       30.05S HX  94
WEST NASHVILLE   N/A     90  72  55 SW5       30.04R HX  96
PORTLAND       PTCLDY    88  70  55 SW5       30.05R HX  92
SMYRNA         PTCLDY    89  71  55 W5        30.06R HX  95
SPARTA         CLEAR     86  79  79 CALM      30.09S HX  99
$$
TNZ056-058-060-061-075>077-079-093>097-220100
...SOUTHERN MIDDLE TENNESSEE...

CITY           SKY/WX    TMP DP  RH WIND       PRES   REMARKS
COLUMBIA       CLEAR     90  73  58 SW5       30.05S HX  98
FAYETTEVILLE   CLEAR     86  70  58 SW3       30.09S HX  90
LEWISBURG      CLEAR     91  73  55 CALM      30.06F HX  99
MCMINNVILLE    CLEAR     88  75  66 CALM      30.09S HX  97
MURFREESBORO   PTCLDY    91  69  48 SW6       30.05R HX  95
SHELBYVILLE    CLEAR     90  73  58 CALM      30.08S HX  98
TULLAHOMA      CLEAR     86  70  58 CALM      30.10S HX  90
WINCHESTER     PTCLDY    88  73  62 CALM      30.09S HX  96
$$


...KEY TO REMARKS...
VSB - VISIBILITY IN MILES
WCI - WIND CHILL INDEX
HX  - HEAT INDEX



USA.gov is the U.S. government's official web portal to all federal, state and local government web resources and services.